This is the latest recevied weather packets stored in our database for station/object AB4KY. If no packets are shown the sender has not sent any weather packets the latest 10 day(s).
| Time | Temp. | Humidity | Pressure | Rain* | Wind** | Luminosity | Snow |
|---|---|---|---|---|---|---|---|
| 1778089081 | 15° C | 67% | 1011 hPa | 0 mm | - | 606 W/m² | - |
| 1778088778 | 15.56° C | 61% | 1011 hPa | 0 mm | - | 592 W/m² | - |
| 1778088475 | 15° C | 62% | 1011.4 hPa | 0 mm | - | 700 W/m² | - |
| 1778088171 | 15° C | 61% | 1011.4 hPa | 0 mm | - | 659 W/m² | - |
| 1778087869 | 15.56° C | 63% | 1011.4 hPa | 0 mm | - | 464 W/m² | - |
| 1778087566 | 15° C | 62% | 1011.3 hPa | 0 mm | - | 483 W/m² | - |
| 1778087264 | 15° C | 63% | 1011.5 hPa | 0 mm | - | 504 W/m² | - |
| 1778086960 | 15° C | 64% | 1011.6 hPa | 0 mm | - | 710 W/m² | - |
| 1778086659 | 14.44° C | 67% | 1011.4 hPa | 0 mm | - | 505 W/m² | - |
| 1778086355 | 15° C | 67% | 1011.6 hPa | 0 mm | - | 624 W/m² | - |
| 1778086052 | 14.44° C | 66% | 1011.6 hPa | 0 mm | - | 692 W/m² | - |
| 1778085749 | 14.44° C | 70% | 1011.8 hPa | 0 mm | - | 685 W/m² | - |
| 1778085446 | 14.44° C | 64% | 1011.5 hPa | 0 mm | - | 561 W/m² | - |
| 1778085141 | 14.44° C | 67% | 1011.7 hPa | 0 mm | - | 617 W/m² | - |
| 1778084837 | 13.89° C | 64% | 1011.9 hPa | 0 mm | - | 722 W/m² | - |
| 1778084535 | 15° C | 68% | 1011.6 hPa | 0 mm | - | 684 W/m² | - |
| 1778084232 | 14.44° C | 74% | 1011.8 hPa | 0 mm | - | 602 W/m² | - |
| 1778083929 | 13.33° C | 73% | 1011.6 hPa | 0 mm | - | 696 W/m² | - |
| 1778083627 | 13.89° C | 71% | 1011.7 hPa | 0 mm | - | 697 W/m² | - |
| 1778083323 | 13.33° C | 69% | 1011.7 hPa | 0 mm | - | 668 W/m² | - |
| 1778083022 | 13.33° C | 76% | 1011.6 hPa | 0 mm | - | 467 W/m² | - |
| 1778082718 | 12.78° C | 70% | 1011.3 hPa | 0 mm | - | 539 W/m² | - |
| 1778081580 | 12.22° C | 73% | 1011.4 hPa | 0 mm | - | 478 W/m² | - |
| 1778081277 | 12.22° C | 78% | 1011.1 hPa | 0 mm | - | 574 W/m² | - |
| 1778080974 | 12.22° C | 75% | 1011 hPa | 0 mm | - | 432 W/m² | - |
* Rain latest hour (hover to see other rain measurements)
** Current wind speed in m/s (hover to see current wind gust speed)